Regional Weather Roundup
Issued by NWS

Home | Current Version | Previous Version | Graphics & Text | Print | Product List | Glossary On
Versions: 1 2 3 4 5 6 7 8 9 10 11 12 13 14 15 16 17 18 19 20 21 22 23 24 25 26 27 28 29 30 31 32 33 34 35 36 37 38 39 40 41 42 43 44 45 46 47 48 49 50
000
ASUS43 KIND 250909
RWRIN

WEATHER ROUNDUP FOR INDIANA
NATIONAL WEATHER SERVICE INDIANAPOLIS IN
500 AM EDT THU MAY 25 2017

NOTE: "FAIR" INDICATES FEW OR NO CLOUDS BELOW 12,000 FEET WITH NO
SIGNIFICANT WEATHER AND/OR OBSTRUCTIONS TO VISIBILITY.

* - STATION DOES NOT REPORT WEATHER SUCH AS PRECIPITATION OR FOG.

+ - STATION NOT QUALITY CONTROLLED BY THE NATIONAL WEATHER SERVICE.
    USE DATA WITH CAUTION...ESPECIALLY DEWPOINT AND RELATIVE
    HUMIDITY OBSERVATIONS.

INZ001>003-010>013-019-020-251000-
NORTHWEST INDIANA

CITY           SKY/WX    TMP DP  RH WIND       PRES   REMARKS
GARY /AIRPORT/ CLOUDY    53  50  88 NW14G22   29.52S
KNOX *+        CLOUDY    54  54 100 N9        29.46R
LA PORTE +     RAIN      55  54  97 N10G17    29.47S
VALPARAISO     CLOUDY    51  50  96 NW8       29.48F

$$

LMZ046-743>745-251000-
SOUTHERN LAKE MICHIGAN

STATION/POSITION TIME  TEMP    WIND        PRES    WAVE
                       AIR SEA DIR/SP/G            HT
                 (UTC) (F)     (DEG/KT/KT) (MB)    (FT)
BURNS HARBOR     0830   50     340/ 18/ 22  999.3S
MICHIGAN CITY    0840   50     330/ 21/ 22   N/A
5NW MICH CITY    0900   49 52  350/ 17/ 21   N/A     6

$$

INZ004-005-014>016-021>024-251000-
NORTH CENTRAL INDIANA

CITY           SKY/WX    TMP DP  RH WIND       PRES   REMARKS
GOSHEN         CLOUDY    58  55  90 N12       29.42S
LOGANSPORT +   DRIZZLE   54  54 100 NW14      29.42S
PERU/GRISSOM   CLOUDY    58  58 100 N13       29.39R
ROCHESTER +    LGT RAIN N/A N/A N/A N10       29.42S
SOUTH BEND     CLOUDY    57  56  96 N12       29.46R
WARSAW +       RAIN      57  57 100 N9        29.42S

$$

INZ006>009-017-018-025>027-251000-
NORTHEAST INDIANA

CITY           SKY/WX    TMP DP  RH WIND       PRES   REMARKS
AUBURN +       CLOUDY    59  55  88 NE7       29.40S FOG
FORT WAYNE     LGT RAIN  60  58  92 N10       29.38R FOG
HUNTINGTON +   CLOUDY   N/A N/A N/A N8        29.38S

$$

INZ028-029-035-036-043>045-051>053-251000-
WEST CENTRAL INDIANA

CITY           SKY/WX    TMP DP  RH WIND       PRES   REMARKS
LAFAYETTE      LGT RAIN  54  53  97 NW14      29.44S FOG
TERRE HAUTE    CLOUDY    56  53  90 NW8       29.48S

$$

INZ030>032-037>040-046>048-054>057-064-065-251000-
CENTRAL INDIANA

CITY           SKY/WX    TMP DP  RH WIND       PRES   REMARKS
CP ATTERBURY + HVY RAIN  55  54  94 W15G21    29.40F
FISHERS *+     CLOUDY    54  54 100 NW16      29.38S
FRANKFORT +    DRIZZLE   57  55  94 NW15G21   29.44R
GREENWOOD *+   CLOUDY    56  55  94 NW10G22   29.40S
INDIANAPOLIS   LGT RAIN  56  54  93 NW15      29.40S FOG
-EAGLE CREEK   LGT RAIN  56  54  93 NW16G23   29.39S FOG
KOKOMO +       LGT RAIN  59  57  94 N14       29.40R
MARION +       LGT RAIN  57  57 100 N12       29.38S
MT COMFORT *+  CLOUDY    55  54  94 NW17      29.37F
SHELBYVILLE    RAIN      57  53  86 W15       29.37S FOG
ZIONSVILLE +   LGT RAIN  55  54  97 NW13G21   29.40S

$$

INZ033-034-041-042-049-050-058-059-251000-
EAST CENTRAL INDIANA

CITY           SKY/WX    TMP DP  RH WIND       PRES   REMARKS
MUNCIE         CLOUDY    59  56  89 N10       29.36R

$$

INZ060-061-067>069-081>083-085>088-251000-
SOUTHWEST INDIANA

CITY           SKY/WX    TMP DP  RH WIND       PRES   REMARKS
EVANSVILLE     CLOUDY    59  55  87 W8        29.54R
HUNTINGBURG *+ CLOUDY    57  56  96 W10       29.51R
WASHINGTON +   CLOUDY    58  55  92 NW10      29.49S

$$

INZ062-063-066-070>080-084-089>092-251000-
SOUTH CENTRAL AND SOUTHEAST INDIANA

CITY           SKY/WX    TMP DP  RH WIND       PRES   REMARKS
BEDFORD +      CLOUDY    55  54  94 W6        29.46  FOG
BLOOMINGTON    CLOUDY    57  54  89 W10       29.45S
MADISON *+     CLOUDY    55  55 100 W9G17     29.45R
NORTH VERNON + RAIN      55  54  94 W10       29.42S
SEYMOUR +      DRIZZLE   59  57  94 W14       29.43S

$$




USA.gov is the U.S. government's official web portal to all federal, state and local government web resources and services.